[[{"header":{"parameterUnit":"m.s-1","parameterCategory":1,"la1":30.2991,"la2":30.254,"lo1":-89.0895,"lo2":-89.0444,"dy":0.0017,"dx":0.0017,"nx":28,"ny":28,"refTime":"2024-02-18T03:00:00:Z","depth":0,"parameterNumber":2,"parameterNumberName":"U-component_of_WINDS"},"data":[0,0,0,0,0,0,0,0,0,0,0,0,0,0,0,0,0,0,0,0,0,0,0,0,0,0,0,0,0,0,0,0,0,0,0,0,0,0,0,0,0,0,0,0,0,0,0,0,0,0,0,0,0,0,0,0,0,0,0.7365,0.7365,0,0.7352,0.7352,0.7352,0.734,0.734,0.734,0.734,0.7325,0.7325,0.7325,0,0,0,0,0,0,0,0,0,0,0,0,0,0.738,0.738,0.7365,0.7365,0.7365,0.7352,0.7352,0.7352,0.734,0.734,0.734,0.734,0.7325,0.7325,0.7325,0,0,0,0,0,0,0,0,0,0,0,0,0,0.7371,0.738,0.7365,0.7358,0.7357,0.7352,0.7352,0.7352,0.734,0.734,0.734,0.734,0.7326,0.7325,0.7325,0.7326,0,0,0.7324,0.7323,0,0,0,0,0,0,0,0,0.7371,0.737,0.7359,0.7358,0.7357,0.7348,0.7352,0.7343,0.734,0.7346,0.734,0.734,0.7333,0.7332,0.733,0.7326,0.7325,0.7324,0.7323,0.7323,0.7323,0,0,0,0,0,0,0,0.7372,0.7371,0.736,0.7359,0.7358,0.7355,0.7353,0.735,0.7341,0.7346,0.7345,0.7344,0.7332,0.733,0.7329,0.7325,0.7324,0.7323,0.7323,0.7323,0.7323,0.7324,0,0,0,0,0,0,0.7374,0.7371,0.736,0.736,0.7364,0.7355,0.7353,0.7351,0.7341,0.7339,0.7344,0.7343,0.7331,0.733,0.7329,0.7331,0.7323,0.7323,0.7323,0.7323,0.7324,0.7324,0,0,0,0,0,0,0.7374,0.7373,0.7361,0.7365,0.7364,0.7355,0.7352,0.7351,0.7349,0.7339,0.7338,0.7343,0.7331,0.7329,0.7328,0.733,0.7323,0.7322,0.7323,0.7323,0.7324,0.7335,0,0,0,0,0,0,0.7375,0.7373,0.7374,0.7365,0.7363,0.736,0.7352,0.7351,0.7348,0.7347,0.7339,0.7337,0.7331,0.7328,0.7327,0.733,0.7322,0.7323,0.7323,0.7324,0.7334,0.7336,0.7337,0,0,0,0,0,0.7375,0.7377,0.7374,0.7372,0.7364,0.736,0.7359,0.7352,0.7348,0.7349,0.7343,0.7337,0.7331,0.7328,0.7327,0.7329,0.7322,0.7323,0.7324,0.7334,0.7336,0.7337,0,0,0,0,0,0,0.7384,0.7375,0.7372,0.7371,0.7366,0.7358,0.7358,0.7353,0.735,0.7349,0.734,0.7338,0.7338,0.7333,0.7331,0.7331,0.7326,0.7326,0.7334,0.7336,0.7337,0.7338,0.7322,0,0,0,0,0,0.7387,0.7384,0.7377,0.7376,0.7374,0.7367,0.7365,0.736,0.7355,0.7353,0.7347,0.7342,0.7339,0.7337,0.7334,0.7334,0.7333,0.7335,0.7337,0.7338,0.7338,0.7339,0.7341,0.7326,0.7326,0.7326,0,0,0.739,0.7385,0.7384,0.7378,0.7374,0.7372,0.7365,0.7363,0.7362,0.7352,0.7351,0.7347,0.7341,0.734,0.734,0.7337,0.7342,0.7338,0.7339,0.7339,0.734,0.7341,0.7343,0.7326,0.7326,0.7326,0,0,0.7396,0.7392,0.7392,0.7389,0.7383,0.7378,0.7379,0.7371,0.7369,0.7367,0.736,0.7359,0.7353,0.735,0.7347,0.7355,0.7349,0.7354,0.736,0.7362,0.7363,0.7364,0.7367,0.7368,0.7354,0.7354,0.7354,0,0.7402,0.7399,0.7392,0.7391,0.7389,0.7382,0.7382,0.7379,0.7372,0.7371,0.7368,0.7363,0.7358,0.7357,0.7359,0.7357,0.7358,0.7354,0.7363,0.7364,0.7365,0.7368,0.7369,0.7355,0.7355,0.7355,0.7355,0,0.7406,0.7404,0.7405,0.74,0.7398,0.7397,0.7391,0.739,0.7386,0.7382,0.7381,0.7376,0.7372,0.7372,0.7367,0.7371,0.7369,0.7365,0.7359,0.7367,0.737,0.7371,0.7356,0.7355,0.7355,0.7355,0,0,0.7416,0.7409,0.7409,0.7407,0.7402,0.74,0.74,0.7397,0.7397,0.7393,0.7393,0.739,0.7386,0.7384,0.7379,0.738,0.7387,0.7376,0.7375,0.7378,0.7392,0.7396,0.7397,0.7384,0.7384,0.7384,0.7393,0,0.7421,0.742,0.7416,0.7416,0.7415,0.7409,0.7409,0.7406,0.7403,0.7402,0.7398,0.7396,0.7391,0.739,0.7391,0.7386,0.739,0.7386,0.7384,0.7384,0.7386,0.7398,0.7401,0.741,0.7394,0.7394,0.7394,0,0.7426,0.7424,0.7425,0.7422,0.7421,0.7421,0.7419,0.7418,0.7414,0.7412,0.741,0.7405,0.7406,0.7401,0.7401,0.7398,0.7398,0.7396,0.7396,0.7395,0.7389,0.7398,0.7412,0.7413,0.7396,0.7396,0.7395,0,0.7434,0.7432,0.7432,0.7431,0.7426,0.7427,0.7425,0.7421,0.7421,0.7419,0.7418,0.7416,0.7415,0.7414,0.7409,0.7405,0.741,0.7404,0.7408,0.7408,0.7409,0.7409,0.7423,0.7409,0.7409,0.7409,0.7409,0,0.744,0.7441,0.7436,0.7436,0.7438,0.7433,0.7434,0.7432,0.7429,0.7429,0.7424,0.7424,0.7418,0.7418,0.7414,0.7415,0.7415,0.7413,0.7412,0.7413,0.7414,0.7413,0.7412,0.7409,0.7409,0.7409,0.7409,0,0.7449,0.7445,0.7446,0.7442,0.7441,0.7442,0.7439,0.7439,0.7437,0.7437,0.7437,0.7432,0.7432,0.7427,0.7425,0.7423,0.7426,0.7424,0.7427,0.7427,0.7431,0.7431,0.7445,0.7446,0.7431,0.7431,0.7431,0,0.7453,0.7453,0.745,0.7451,0.7449,0.7449,0.7449,0.7444,0.7444,0.7442,0.7443,0.7442,0.7441,0.7441,0.7438,0.7437,0.7435,0.744,0.7434,0.7436,0.7435,0.7435,0.7436,0.744,0.7441,0.7441,0.7441,0,0.746,0.7459,0.7459,0.7458,0.7458,0.7457,0.7456,0.7457,0.7452,0.7452,0.7452,0.7452,0.7451,0.7451,0.745,0.7448,0.7444,0.7443,0.7444,0.7445,0.7447,0.7447,0.743,0.7442,0.7442,0.7442,0.7442,0.7442,0.7467,0.7468,0.7466,0.7467,0.7466,0.7465,0.7466,0.7464,0.7464,0.7464,0.7461,0.7462,0.746,0.7459,0.7458,0.7458,0.7456,0.7457,0.7457,0.7457,0.7459,0.7448,0.7458,0.7458,0.7458,0.7458,0.7458,0,0.7475,0.7474,0.7474,0.7474,0.7474,0.7472,0.7471,0.7471,0.7472,0.7471,0.7471,0.7472,0.7472,0.747,0.747,0.7471,0.7469,0.7471,0.7471,0.7471,0.7461,0.746,0.7473,0.7473,0.7473,0.7473,0.7473,0.7473,0.7479,0.7481,0.748,0.7482,0.7481,0.7482,0.7482,0.7482,0.7481,0.7483,0.7483,0.7482,0.7481,0.7481,0.7482,0.7481,0.7481,0.7484,0.7483,0.7473,0.7471,0.747,0.7469,0.7484,0.7484,0.7493,0.7493,0.7493]},{"header":{"parameterUnit":"m.s-1","parameterCategory":1,"la1":30.2991,"la2":30.254,"lo1":-89.0895,"lo2":-89.0444,"dy":0.0017,"dx":0.0017,"nx":28,"ny":28,"refTime":"2024-02-18T03:00:00:Z","depth":0,"parameterNumber":3,"parameterNumberName":"V-component_of_WINDS"},"data":[0,0,0,0,0,0,0,0,0,0,0,0,0,0,0,0,0,0,0,0,0,0,0,0,0,0,0,0,0,0,0,0,0,0,0,0,0,0,0,0,0,0,0,0,0,0,0,0,0,0,0,0,0,0,0,0,0,0,-4.9896,-4.9897,0,-4.9971,-4.9972,-4.9973,-4.9966,-4.9965,-4.9963,-4.9962,-5.0034,-5.0036,-5.0039,0,0,0,0,0,0,0,0,0,0,0,0,0,-4.9744,-4.9747,-4.9896,-4.9897,-4.9898,-4.9971,-4.9972,-4.9973,-4.9966,-4.9965,-4.9963,-4.9962,-5.0033,-5.0036,-5.004,0,0,0,0,0,0,0,0,0,0,0,0,0,-4.9813,-4.9748,-4.9896,-4.9903,-4.9905,-4.9971,-4.9972,-4.9973,-4.9966,-4.9964,-4.9963,-4.9961,-5.0031,-5.0036,-5.004,-5.0102,0,0,-5.0054,-5.0056,0,0,0,0,0,0,0,0,-4.9809,-4.9819,-4.9901,-4.9903,-4.9905,-4.9957,-4.9944,-5.0016,-4.9967,-4.9943,-4.9962,-4.996,-5.0009,-5.0015,-5.0033,-5.0105,-5.0108,-5.0054,-5.0057,-5.0059,-5.006,0,0,0,0,0,0,0,-4.9805,-4.9816,-4.9926,-4.9903,-4.9905,-4.9902,-4.991,-4.9958,-4.9984,-4.9945,-4.9944,-4.9954,-5.001,-5.0029,-5.0035,-5.0109,-5.0054,-5.0058,-5.0061,-5.0062,-5.0238,-5.024,0,0,0,0,0,0,-4.9799,-4.9812,-4.9923,-4.9928,-4.9852,-4.9906,-4.9915,-4.9942,-4.9984,-4.9989,-4.9955,-4.9953,-5.0022,-5.0029,-5.0037,-5.0114,-5.0059,-5.0063,-5.0065,-5.0236,-5.0239,-5.0241,0,0,0,0,0,0,-4.9795,-4.9809,-4.992,-4.987,-4.9884,-4.9911,-4.9941,-4.9945,-4.9964,-4.9992,-4.9996,-4.997,-5.0021,-5.0031,-5.0087,-5.0116,-5.0065,-5.0069,-5.0234,-5.0237,-5.024,-5.0267,0,0,0,0,0,0,-4.9791,-4.9808,-4.9832,-4.9871,-4.9887,-4.997,-4.9943,-4.9947,-4.9972,-4.997,-5.0007,-5.0011,-5.002,-5.008,-5.0091,-5.0122,-5.0072,-5.0231,-5.0235,-5.0239,-5.0264,-5.0271,-5.0277,0,0,0,0,0,-4.9786,-4.9835,-4.9833,-4.9847,-4.9918,-4.9971,-4.998,-4.9992,-4.9974,-4.9999,-5.0017,-5.001,-5.0111,-5.0086,-5.0098,-5.013,-5.023,-5.0234,-5.0239,-5.0261,-5.0269,-5.0277,0,0,0,0,0,0,-4.9796,-4.984,-4.9838,-4.9902,-4.9933,-4.997,-5.0001,-5.0,-5.0035,-5.0032,-5.0042,-5.0051,-5.0108,-5.0124,-5.0095,-5.0194,-5.0168,-5.0175,-5.0181,-5.0189,-5.0195,-5.019,-5.0076,0,0,0,0,0,-4.9806,-4.9847,-4.9883,-4.9935,-4.9951,-4.9974,-4.9997,-5.0004,-5.0036,-5.0048,-5.0071,-5.0101,-5.014,-5.0165,-5.0202,-5.0266,-5.0275,-5.0294,-5.0301,-5.0306,-5.0312,-5.0349,-5.0359,-5.0256,-5.0256,-5.0256,0,0,-4.9826,-4.9855,-4.988,-4.9938,-4.9963,-5.0005,-4.9985,-5.0029,-5.006,-5.0054,-5.011,-5.0128,-5.0162,-5.0223,-5.0251,-5.0239,-5.0343,-5.0312,-5.0316,-5.0319,-5.0355,-5.0365,-5.0373,-5.0259,-5.0258,-5.0258,0,0,-4.9885,-4.9911,-4.9959,-4.9986,-5.0025,-5.004,-5.0052,-5.009,-5.0102,-5.0158,-5.0156,-5.0192,-5.0258,-5.0284,-5.0306,-5.0378,-5.0373,-5.0389,-5.0423,-5.0459,-5.0468,-5.0475,-5.0502,-5.0511,-5.0395,-5.0395,-5.0395,0,-4.9905,-4.997,-4.9983,-5.003,-5.0055,-5.0055,-5.0104,-5.0128,-5.0177,-5.0194,-5.018,-5.0266,-5.0289,-5.0357,-5.0375,-5.0392,-5.0406,-5.0385,-5.0466,-5.0473,-5.048,-5.0506,-5.0516,-5.0397,-5.0397,-5.0397,-5.0397,0,-4.9993,-5.0038,-5.0071,-5.0122,-5.0152,-5.0198,-5.0219,-5.0247,-5.0251,-5.0268,-5.0326,-5.0354,-5.0398,-5.0414,-5.0417,-5.0483,-5.0475,-5.0463,-5.0438,-5.0492,-5.0516,-5.0526,-5.04,-5.0399,-5.0399,-5.0398,0,0,-5.0058,-5.0119,-5.0131,-5.0155,-5.02,-5.0234,-5.0282,-5.0327,-5.0352,-5.0386,-5.0426,-5.0484,-5.0475,-5.0499,-5.0506,-5.0537,-5.0595,-5.0522,-5.0523,-5.0536,-5.0671,-5.0681,-5.0692,-5.0592,-5.0594,-5.0596,-5.0669,0,-5.0123,-5.0209,-5.0224,-5.0299,-5.0342,-5.0344,-5.0385,-5.0417,-5.0434,-5.0472,-5.049,-5.0531,-5.0515,-5.053,-5.0562,-5.0581,-5.0622,-5.0576,-5.063,-5.0631,-5.0622,-5.0705,-5.0714,-5.0782,-5.0678,-5.068,-5.0681,0,-5.0209,-5.0249,-5.033,-5.0372,-5.039,-5.0427,-5.0472,-5.0508,-5.0545,-5.0555,-5.0584,-5.0588,-5.0637,-5.061,-5.0678,-5.0646,-5.0669,-5.0682,-5.0685,-5.0691,-5.066,-5.0714,-5.0803,-5.0814,-5.0696,-5.0695,-5.0694,0,-5.0251,-5.0325,-5.0383,-5.0403,-5.0454,-5.048,-5.0502,-5.0537,-5.0564,-5.0603,-5.0621,-5.0663,-5.0687,-5.0719,-5.0734,-5.0713,-5.0802,-5.0775,-5.0812,-5.0812,-5.0831,-5.0829,-5.0926,-5.0844,-5.0844,-5.0843,-5.0843,0,-5.0322,-5.0371,-5.0403,-5.0439,-5.0495,-5.0512,-5.0566,-5.0587,-5.0618,-5.0658,-5.0661,-5.0698,-5.0715,-5.0754,-5.0766,-5.0822,-5.0831,-5.0841,-5.0844,-5.0842,-5.0841,-5.0857,-5.0853,-5.0846,-5.0846,-5.0845,-5.0845,0,-5.0378,-5.0401,-5.0465,-5.0509,-5.0521,-5.0561,-5.0598,-5.0632,-5.065,-5.0701,-5.0713,-5.0741,-5.0788,-5.0806,-5.0862,-5.087,-5.0935,-5.0933,-5.0924,-5.0925,-5.0961,-5.0958,-5.1072,-5.1089,-5.0994,-5.0995,-5.0996,0,-5.0422,-5.0461,-5.051,-5.0538,-5.0562,-5.0606,-5.0636,-5.0654,-5.0684,-5.073,-5.0759,-5.0807,-5.0846,-5.0921,-5.0945,-5.0988,-5.0988,-5.1026,-5.0995,-5.0992,-5.0991,-5.0989,-5.0993,-5.1031,-5.1032,-5.1033,-5.1034,0,-5.0498,-5.0509,-5.0552,-5.06,-5.0636,-5.0674,-5.071,-5.0733,-5.0756,-5.079,-5.084,-5.087,-5.093,-5.0977,-5.1023,-5.1044,-5.1043,-5.1044,-5.1055,-5.1053,-5.1047,-5.1052,-5.0941,-5.1041,-5.104,-5.104,-5.1039,-5.1039,-5.0551,-5.0586,-5.0628,-5.0676,-5.0707,-5.0742,-5.0778,-5.0802,-5.0844,-5.0896,-5.0904,-5.0957,-5.0994,-5.1056,-5.108,-5.1121,-5.1111,-5.1126,-5.1131,-5.1134,-5.1138,-5.104,-5.1129,-5.1129,-5.1129,-5.1128,-5.1128,0,-5.0628,-5.0656,-5.0701,-5.0754,-5.0793,-5.0791,-5.0833,-5.0865,-5.0913,-5.0948,-5.0988,-5.1046,-5.1093,-5.1122,-5.1169,-5.1197,-5.1198,-5.1208,-5.1207,-5.1212,-5.1143,-5.113,-5.1207,-5.1207,-5.1207,-5.1207,-5.1207,-5.1207,-5.0674,-5.0735,-5.0751,-5.0827,-5.0854,-5.0909,-5.0933,-5.0965,-5.0995,-5.106,-5.11,-5.112,-5.1154,-5.1203,-5.1246,-5.1254,-5.1271,-5.1283,-5.129,-5.1225,-5.1217,-5.1209,-5.1196,-5.1286,-5.1287,-5.1355,-5.1356,-5.1357]}]]